Temperature
11 11 10 10 10 10 9 9 9 9 9 9 8 8 8 8 8 8 7 7 7 7 7 7 6 6 5 5 5 4 4 4 3 3 3 2 2 3 3 2 3 3 3
11 10 10 10 10 9 9 9 8 8 8 8 8 8 8 8 8 8 7 7 7 7 7 6 6 6 5 5 4 4 3 3 3 2 2 2 2 1 2 1 2 2 2
11 10 10 10 10 9 9 8 8 8 8 8 8 8 8 8 7 7 7 7 7 6 6 6 6 6 5 5 4 3 3 3 2 2 1 1 1 1 1 1 1 1 1
10 10 10 10 9 9 8 8 8 8 8 8 8 8 7 7 7 7 7 7 7 6 6 6 6 6 5 5 4 3 3 2 2 1 1 1 0 0 0 0 0 0 0
10 10 10 10 9 8 8 8 8 8 8 8 7 7 7 7 7 7 7 7 6 6 6 6 5 5 5 5 4 3 3 2 2 1 1 0 0 -0 -0 -0 -0 -0 -0
9 9 9 9 8 8 8 8 8 7 7 7 7 6 7 7 7 7 7 7 6 6 6 6 5 5 5 5 4 4 3 2 2 1 0 0 -0 -0 -1 -1 -1 -1 -0
8 8 8 8 7 7 7 7 7 7 7 6 6 6 6 6 7 7 7 7 7 7 6 6 5 5 5 4 4 4 3 2 2 1 0 -0 -0 -1 -1 -1 -1 -1 -1
8 7 7 7 7 7 7 6 6 6 6 6 5 5 4 6 7 7 8 7 7 7 6 6 5 5 5 4 4 3 3 2 2 1 -0 -1 -1 -1 -1 -1 -1 -1 -1
8 7 7 7 6 6 6 6 6 6 5 5 5 4 4 4 6 6 6 7 7 6 6 6 5 5 4 4 3 3 2 2 2 1 -0 -1 -1 -1 -1 -1 -1 -1 -1
8 7 7 6 6 6 5 5 5 5 5 4 4 4 4 4 3 4 5 5 5 5 5 5 5 4 4 3 3 3 2 2 1 1 -1 -1 -1 -1 -1 -1 -1 -1 -1
8 7 7 6 6 6 5 5 5 4 4 4 4 3 3 3 2 1 1 3 3 3 4 4 4 3 3 3 3 2 1 1 1 0 -1 -1 -2 -2 -2 -2 -2 -2 -2
8 7 7 6 6 5 5 5 5 4 4 4 3 3 2 2 1 1 0 1 1 2 2 2 2 2 2 2 2 1 1 0 0 -0 -1 -2 -2 -2 -2 -2 -2 -2 -2
7 7 6 6 6 5 5 5 4 4 4 3 3 3 2 2 2 1 -0 -0 -0 0 0 0 1 1 1 1 1 1 0 -0 -1 -1 -2 -2 -3 -3 -3 -3 -3 -3 -3
7 7 6 6 5 5 5 4 4 4 3 3 3 3 2 2 1 0 -0 -1 -2 -1 -1 -1 -1 -0 0 0 0 0 -1 -1 -1 -2 -2 -3 -3 -3 -3 -3 -3 -3 -3
7 6 6 5 5 5 4 4 3 3 3 3 3 3 2 2 1 0 -1 -1 -2 -3 -3 -2 -2 -2 -1 -1 -1 -1 -1 -1 -2 -2 -2 -3 -3 -4 -4 -4 -4 -4 -4
7 6 6 5 5 5 4 4 3 3 3 3 3 2 2 2 1 0 -1 -2 -3 -3 -4 -3 -3 -3 -2 -2 -2 -2 -2 -2 -2 -2 -3 -3 -4 -4 -4 -4 -4 -4 -4
6 6 5 5 5 4 4 3 3 3 3 2 2 2 2 1 1 -0 -1 -2 -3 -4 -5 -4 -4 -4 -4 -4 -3 -3 -3 -3 -3 -3 -3 -3 -4 -4 -4 -5 -5 -5 -5
5 5 5 5 4 4 4 3 3 3 2 2 2 2 1 1 1 -0 -1 -2 -3 -3 -4 -5 -5 -5 -5 -4 -4 -4 -4 -4 -3 -3 -3 -4 -4 -4 -5 -5 -5 -5 -5
5 5 4 4 4 4 3 3 3 2 2 2 1 1 1 0 0 -0 -1 -2 -2 -3 -4 -5 -5 -5 -5 -5 -5 -5 -4 -4 -4 -4 -4 -4 -4 -5 -5 -5 -5 -5 -6
4 4 3 3 3 3 3 3 2 2 1 1 1 0 0 -0 -0 -1 -1 -2 -2 -4 -5 -5 -6 -6 -6 -6 -6 -6 -5 -4 -4 -4 -4 -5 -5 -5 -5 -6 -6 -6 -6
3 3 3 3 2 2 2 2 1 1 1 1 0 0 -0 -1 -1 -2 -2 -3 -4 -4 -5 -6 -7 -7 -7 -7 -6 -6 -6 -5 -5 -5 -5 -5 -5 -5 -5 -5 -5 -6 -6
2 2 2 2 1 1 1 1 0 -0 -0 -0 -0 -0 -0 -1 -2 -3 -4 -4 -5 -5 -6 -6 -7 -7 -7 -7 -6 -6 -6 -6 -6 -5 -5 -5 -6 -6 -5 -5 -6 -6 -7
1 1 1 0 0 0 0 -0 -0 -1 -1 -1 -1 -1 -1 -1 -2 -3 -3 -4 -4 -5 -5 -6 -6 -7 -7 -6 -6 -6 -7 -7 -6 -6 -7 -7 -7 -7 -6 -6 -6 -7 -7
-0 -0 -0 -1 -1 -0 -1 -1 -1 -1 -2 -2 -1 -2 -2 -2 -3 -3 -4 -4 -5 -5 -5 -5 -6 -6 -6 -6 -6 -6 -7 -7 -7 -7 -7 -8 -7 -7 -7 -7 -7 -7 -7
-1 -1 -1 -1 -1 -1 -1 -1 -2 -2 -2 -2 -2 -2 -3 -3 -3 -4 -5 -5 -5 -5 -5 -6 -6 -6 -6 -6 -6 -7 -7 -7 -8 -7 -7 -8 -7 -8 -8 -7 -7 -7 -8
-2 -2 -2 -2 -2 -2 -2 -2 -2 -3 -3 -3 -3 -3 -3 -4 -4 -4 -5 -6 -6 -6 -6 -6 -6 -6 -6 -6 -6 -6 -7 -7 -7 -7 -7 -8 -8 -8 -9 -8 -8 -8 -8
Wind_Speed
13 14 15 16 16 16 15 14 13 12 12 13 14 13 13 13 13 13 12 10 10 9 8 8 7 7 7 7 7 7 7 8 8 9 10 11 11 12 13 14 15 15 16
17 15 14 15 17 18 18 16 15 13 12 12 12 14 15 15 15 15 15 14 13 12 11 11 10 10 9 9 9 9 9 9 10 10 10 11 12 12 13 14 14 15 16
20 18 14 14 17 19 18 16 15 13 10 10 9 14 15 16 16 17 18 17 17 15 15 14 13 12 12 11 11 11 11 11 11 11 12 12 12 13 13 14 15 15 16
23 19 15 14 18 18 16 11 8 6 7 7 7 8 12 14 17 19 19 19 19 18 18 17 16 15 15 14 13 13 13 13 13 13 13 14 14 14 15 15 15 16 17
25 22 17 17 18 15 14 11 8 7 8 8 8 7 7 9 13 17 17 20 21 21 21 20 19 19 17 16 16 15 15 14 15 15 15 15 15 15 16 16 17 17 18
25 23 18 16 17 10 9 8 9 8 7 7 9 9 8 9 12 13 17 19 21 22 22 21 21 20 19 19 18 17 16 16 16 17 17 17 17 17 17 18 18 18 19
23 22 16 14 14 11 13 12 9 9 9 4 4 6 6 10 14 13 15 15 18 21 22 22 21 21 20 20 20 19 18 18 18 18 18 19 19 19 19 19 20 20 20
22 22 18 12 12 11 12 12 11 8 7 7 6 3 5 6 9 15 13 14 14 17 18 22 21 21 21 21 21 21 20 20 20 20 20 20 21 21 21 21 21 21 21
22 22 20 17 13 13 14 15 14 13 11 9 8 6 5 8 4 4 9 12 12 11 12 17 21 22 22 21 22 23 23 22 22 22 22 22 22 23 23 22 22 23 23
20 22 21 19 15 14 16 16 15 14 13 12 8 10 9 5 4 5 4 6 9 12 12 13 17 21 23 22 22 23 24 24 24 24 24 24 24 24 24 24 24 24 24
16 20 21 18 16 15 17 16 15 16 15 16 12 7 11 10 9 7 10 5 4 7 10 10 12 16 21 22 22 25 26 25 25 25 25 25 25 26 26 26 25 25 25
11 14 16 16 16 15 17 17 17 18 17 17 16 12 9 8 9 11 17 13 8 6 8 9 11 14 19 21 24 26 27 27 27 26 26 26 26 26 27 27 27 27 27
10 13 15 16 16 17 16 15 17 19 19 17 19 17 16 16 8 8 13 13 9 6 6 7 11 15 19 20 22 28 28 28 27 27 27 27 26 27 27 28 28 28 29
12 12 14 16 17 17 17 17 17 18 17 20 21 20 17 16 13 12 10 9 10 8 8 9 6 11 18 20 23 27 24 27 28 27 27 26 27 27 28 29 29 30 30
11 11 13 15 17 17 18 17 17 19 18 19 19 20 19 16 14 13 12 11 12 15 14 9 9 8 15 18 24 22 21 26 27 27 27 27 28 28 29 30 30 30 31
12 12 12 14 15 16 17 17 17 17 19 19 16 18 19 16 14 13 14 12 14 17 18 6 9 7 9 13 22 22 21 25 27 27 28 28 29 29 30 30 30 31 32
11 12 13 13 14 15 15 16 18 16 19 20 18 19 21 17 16 14 13 14 15 15 21 12 7 8 10 10 11 14 17 17 19 27 29 29 29 30 30 30 31 32 32
11 12 12 12 14 14 14 15 18 18 19 20 20 19 21 17 19 16 15 16 16 16 18 19 8 9 12 11 10 10 12 17 17 25 28 29 30 30 30 31 31 32 32
11 11 11 12 14 14 14 15 17 17 18 19 19 19 20 18 19 17 17 17 16 16 15 17 14 9 10 9 9 10 13 10 16 22 26 28 29 30 30 31 31 32 32
11 11 12 12 13 13 13 14 14 16 17 17 17 18 18 19 20 19 17 18 16 16 15 15 14 10 11 8 7 10 11 10 12 14 18 22 25 28 30 31 31 31 32
11 11 12 13 12 11 12 13 13 15 16 16 16 17 18 22 25 21 17 14 14 15 14 14 15 13 13 10 10 9 12 10 9 10 11 12 13 13 16 26 29 30 31
11 11 12 13 13 12 20 24 19 13 14 15 16 16 17 21 26 31 33 29 23 18 17 17 16 16 14 14 12 11 10 10 9 6 9 12 10 12 11 13 25 30 32
12 12 12 13 14 16 25 26 26 16 12 13 15 14 13 15 21 15 23 30 29 33 30 20 19 18 15 14 13 13 13 12 13 8 6 12 10 13 11 17 28 30 32
11 12 13 13 14 16 24 25 25 17 12 12 13 14 14 14 14 15 13 15 16 17 21 20 18 17 16 13 12 14 13 13 12 10 10 13 12 13 12 10 25 30 32
12 12 12 13 14 16 23 25 24 11 10 12 12 12 13 14 21 25 17 15 16 16 24 29 26 23 27 27 20 12 12 12 13 11 9 9 10 11 12 12 16 28 31
13 13 13 12 14 15 21 24 24 9 10 10 9 11 19 19 21 23 16 14 17 15 12 13 18 20 18 20 27 18 13 13 10 8 6 7 7 5 8 8 9 10 15
Wind_Direction
196 202 209 211 211 207 205 210 219 228 235 238 236 232 228 227 228 229 234 244 252 259 266 271 276 281 287 293 299 307 313 317 321 325 328 330 331 332 332 331 332 332 332
199 201 206 210 213 213 213 213 217 222 231 234 236 234 232 232 233 233 236 241 248 254 258 263 267 270 274 280 285 289 295 301 306 310 313 316 319 320 321 322 322 323 323
203 202 207 212 215 216 216 218 222 225 231 233 237 237 236 235 235 236 237 239 243 249 254 257 260 263 267 271 276 281 285 290 294 297 301 303 306 308 310 312 313 314 315
207 205 210 215 214 211 211 212 214 216 228 229 233 237 237 237 238 238 238 238 239 241 246 252 255 258 261 265 270 275 280 283 286 289 292 295 297 300 302 303 304 305 306
209 209 214 216 209 207 210 217 213 210 223 229 235 241 240 240 240 241 238 237 237 238 240 245 251 253 256 260 265 270 274 278 281 284 287 289 291 293 295 297 298 300 300
210 211 217 214 206 206 213 214 217 213 220 224 241 250 244 241 241 239 240 239 236 235 236 237 242 247 252 255 259 265 269 273 277 280 282 284 287 289 290 292 293 295 295
209 211 218 212 208 215 219 215 215 220 226 196 230 273 267 244 243 241 237 236 235 232 231 231 233 236 242 250 254 259 265 269 273 276 278 280 282 284 286 288 289 291 292
212 215 217 216 211 218 221 216 211 218 220 190 190 220 287 289 243 238 232 231 233 230 229 230 228 229 231 236 245 254 260 265 269 272 275 277 278 280 282 283 286 287 289
216 219 219 219 216 216 225 222 215 216 226 211 198 186 211 247 292 258 234 231 228 224 227 228 227 228 228 230 237 246 254 260 265 269 272 274 276 277 278 280 282 285 287
219 220 222 220 220 221 226 224 219 219 220 226 215 221 224 197 230 292 268 239 229 226 225 226 228 227 227 227 232 241 248 254 260 265 269 272 274 275 276 278 281 283 286
222 223 222 223 224 225 227 225 221 218 220 227 221 211 228 236 232 247 272 272 258 236 227 224 225 226 226 226 229 237 246 252 257 262 266 270 272 274 277 279 281 283 284
229 226 224 225 227 229 228 227 225 222 223 225 226 220 211 214 217 223 245 254 248 237 228 225 224 227 228 226 229 237 244 249 254 259 263 266 270 273 276 278 280 281 282
240 232 227 229 231 232 231 227 227 227 226 225 227 229 228 230 214 211 234 251 251 236 231 230 225 227 229 227 230 239 243 248 253 257 261 264 267 271 274 276 278 279 280
248 239 230 233 233 233 232 229 230 230 230 230 232 230 233 233 225 222 224 233 254 252 232 234 228 224 228 228 231 238 241 247 251 255 259 262 266 269 272 273 275 277 278
254 244 237 237 237 235 234 231 233 232 231 232 233 232 234 235 229 227 223 218 234 258 260 214 217 219 223 226 233 235 233 241 248 253 258 262 265 268 270 271 273 274 276
257 254 248 244 243 240 237 234 237 235 233 234 233 232 234 235 232 228 227 224 225 241 259 219 212 204 211 224 232 231 228 238 245 253 258 262 265 267 268 269 271 272 273
261 257 255 251 248 245 241 239 239 235 235 237 234 233 235 231 232 230 227 226 228 230 249 249 205 208 210 222 235 228 226 236 246 254 259 262 264 266 266 268 269 271 273
267 262 260 256 254 251 245 241 243 240 238 238 236 235 237 232 232 230 228 229 230 228 238 251 230 214 221 224 227 231 238 242 242 252 257 261 263 264 265 267 270 271 273
273 270 263 260 258 255 250 245 244 243 240 239 237 235 236 231 233 231 228 229 230 230 231 243 243 225 229 227 228 237 241 242 246 252 257 260 262 264 266 268 270 271 272
279 277 271 266 262 259 254 251 247 246 245 242 239 237 235 230 232 230 230 229 227 228 228 235 240 234 233 224 221 235 246 240 244 247 252 256 259 263 265 268 270 272 274
282 279 278 276 270 264 260 254 250 249 248 247 243 239 238 237 236 235 234 229 223 227 227 232 237 236 233 226 227 227 240 246 246 243 247 251 255 256 261 266 269 271 273
284 281 278 277 276 274 276 276 270 252 246 245 246 244 242 246 248 247 244 238 226 222 224 228 233 233 231 228 230 228 233 240 251 226 233 247 241 250 252 251 262 268 272
286 283 280 278 276 276 283 284 281 274 252 245 243 243 244 241 244 240 246 248 244 235 226 222 229 229 228 225 223 229 231 233 242 235 227 259 252 257 256 259 267 270 273
287 286 284 280 279 280 287 288 286 280 264 251 244 240 240 240 235 234 231 235 238 242 240 233 227 226 226 225 219 225 232 242 250 247 234 258 261 262 264 257 268 271 274
291 287 284 284 283 284 288 291 289 276 265 256 247 240 240 239 244 245 238 233 236 238 244 243 238 231 229 229 225 225 230 237 249 248 223 240 259 266 268 268 266 271 274
291 291 287 283 282 283 287 292 291 278 268 264 253 244 249 248 248 249 240 232 235 234 226 236 243 247 241 238 236 227 226 236 248 254 216 220 247 260 278 261 253 258 266
Height
1550 1552 1553 1554 1554 1555 1555 1555 1555 1555 1555 1554 1554 1554 1554 1553 1553 1553 1552 1552 1551 1550 1549 1549 1547 1547 1545 1544 1543 1542 1541 1540 1539 1538 1536 1535 1534 1533 1533 1532 1531 1530 1529
1547 1548 1549 1550 1551 1551 1552 1552 1552 1552 1551 1551 1550 1550 1550 1550 1549 1549 1549 1548 1547 1547 1546 1545 1544 1543 1542 1541 1540 1539 1538 1537 1536 1534 1533 1532 1531 1530 1529 1529 1528 1527 1526
1542 1544 1545 1546 1547 1548 1548 1548 1548 1548 1547 1547 1546 1546 1546 1545 1545 1544 1544 1544 1543 1542 1542 1541 1540 1539 1538 1537 1536 1535 1534 1533 1532 1531 1530 1529 1528 1527 1526 1525 1524 1523 1523
1537 1539 1539 1540 1543 1544 1543 1543 1543 1543 1543 1542 1542 1542 1541 1540 1539 1539 1538 1538 1538 1537 1537 1536 1535 1535 1534 1533 1532 1531 1530 1529 1528 1527 1526 1525 1524 1523 1522 1522 1521 1520 1519
1531 1532 1533 1535 1537 1537 1537 1538 1537 1537 1537 1537 1537 1536 1535 1534 1533 1532 1531 1531 1531 1531 1531 1531 1530 1529 1529 1528 1527 1526 1525 1524 1523 1522 1521 1520 1519 1519 1518 1517 1517 1516 1515
1524 1526 1526 1528 1529 1530 1530 1530 1530 1531 1531 1531 1530 1528 1527 1526 1525 1524 1524 1524 1524 1524 1524 1524 1524 1523 1522 1522 1521 1520 1519 1519 1518 1517 1516 1515 1514 1514 1513 1513 1512 1511 1511
1516 1518 1519 1520 1521 1521 1522 1523 1523 1523 1523 1524 1523 1519 1517 1516 1515 1514 1515 1515 1515 1515 1516 1516 1516 1516 1516 1515 1515 1514 1513 1512 1512 1511 1510 1510 1509 1508 1508 1507 1507 1506 1506
1509 1510 1511 1511 1512 1513 1513 1514 1515 1514 1514 1516 1515 1513 1509 1505 1502 1504 1504 1504 1505 1506 1506 1507 1508 1508 1509 1509 1508 1508 1507 1506 1505 1505 1504 1504 1503 1503 1502 1502 1501 1501 1500
1502 1502 1502 1503 1503 1503 1503 1504 1505 1506 1505 1506 1506 1507 1504 1497 1495 1492 1492 1493 1495 1496 1497 1499 1499 1500 1501 1501 1501 1501 1500 1499 1498 1498 1497 1497 1497 1496 1496 1496 1495 1495 1494
1494 1493 1494 1494 1493 1493 1493 1494 1495 1495 1496 1495 1495 1494 1494 1494 1493 1486 1484 1484 1485 1486 1488 1490 1491 1492 1493 1493 1493 1493 1493 1492 1491 1490 1490 1490 1490 1489 1489 1489 1489 1488 1487
1485 1485 1484 1484 1483 1483 1482 1483 1484 1483 1483 1483 1483 1483 1483 1483 1482 1481 1475 1474 1475 1475 1478 1481 1482 1483 1484 1484 1484 1485 1485 1484 1483 1483 1482 1482 1482 1482 1482 1481 1481 1480 1479
1477 1475 1475 1474 1473 1472 1471 1471 1472 1472 1471 1470 1471 1471 1471 1470 1468 1469 1468 1464 1464 1465 1469 1470 1471 1473 1475 1475 1475 1476 1476 1475 1475 1475 1474 1474 1474 1473 1473 1473 1472 1472 1471
1468 1466 1466 1464 1463 1462 1461 1461 1460 1459 1459 1458 1458 1458 1457 1456 1458 1459 1459 1456 1455 1454 1455 1456 1459 1462 1464 1465 1466 1467 1467 1466 1466 1466 1466 1465 1465 1465 1464 1464 1463 1463 1462
1460 1458 1457 1454 1453 1452 1451 1450 1448 1447 1447 1446 1445 1446 1445 1444 1446 1446 1447 1449 1446 1443 1442 1442 1446 1450 1453 1455 1456 1457 1457 1457 1457 1457 1457 1456 1456 1456 1455 1454 1454 1453 1453
1453 1451 1448 1445 1443 1442 1440 1439 1437 1435 1435 1433 1433 1433 1433 1433 1434 1434 1435 1437 1439 1434 1428 1430 1434 1437 1442 1444 1446 1446 1446 1447 1448 1447 1447 1447 1447 1446 1446 1445 1445 1444 1443
1447 1443 1440 1437 1434 1432 1430 1428 1425 1424 1423 1421 1421 1421 1420 1421 1422 1423 1424 1424 1425 1425 1419 1417 1422 1426 1430 1432 1435 1435 1436 1437 1437 1438 1437 1437 1437 1436 1436 1435 1435 1434 1433
1439 1435 1431 1428 1425 1422 1420 1417 1414 1412 1411 1409 1409 1408 1407 1409 1410 1410 1412 1412 1413 1413 1408 1406 1412 1415 1418 1421 1424 1425 1425 1426 1426 1427 1427 1427 1426 1426 1425 1425 1424 1424 1423
1431 1427 1423 1419 1415 1412 1409 1406 1403 1400 1398 1396 1396 1396 1395 1397 1397 1398 1399 1399 1400 1400 1399 1396 1400 1403 1406 1409 1412 1413 1414 1415 1415 1416 1416 1416 1415 1415 1415 1415 1414 1413 1412
1423 1419 1414 1409 1405 1402 1398 1394 1391 1388 1386 1384 1383 1383 1383 1385 1384 1385 1386 1386 1387 1388 1388 1387 1387 1392 1394 1397 1399 1401 1402 1403 1404 1405 1405 1405 1405 1404 1404 1403 1403 1402 1401
1414 1409 1404 1399 1395 1391 1387 1383 1380 1376 1374 1372 1371 1370 1370 1371 1371 1372 1373 1373 1375 1376 1377 1377 1377 1380 1383 1386 1388 1388 1390 1392 1393 1394 1394 1393 1393 1393 1393 1392 1392 1390 1389
1405 1399 1394 1389 1385 1380 1376 1372 1368 1365 1362 1359 1358 1358 1358 1358 1358 1360 1360 1360 1362 1363 1365 1366 1366 1369 1371 1374 1374 1377 1379 1381 1381 1383 1382 1382 1382 1381 1380 1380 1379 1377 1375
1395 1389 1384 1379 1374 1370 1366 1362 1358 1353 1350 1348 1346 1346 1346 1346 1346 1348 1349 1349 1350 1351 1352 1354 1355 1357 1358 1362 1365 1368 1369 1370 1370 1372 1371 1370 1370 1368 1367 1367 1366 1364 1362
1384 1379 1373 1369 1363 1359 1356 1352 1348 1345 1340 1338 1336 1335 1334 1334 1334 1334 1336 1338 1340 1341 1341 1341 1342 1344 1348 1352 1357 1358 1359 1360 1360 1362 1362 1358 1359 1356 1356 1355 1354 1352 1350
1375 1369 1363 1359 1353 1349 1346 1342 1338 1334 1331 1328 1326 1325 1324 1323 1324 1324 1324 1324 1326 1328 1331 1332 1331 1334 1339 1343 1346 1349 1350 1351 1351 1351 1352 1349 1347 1346 1344 1342 1341 1340 1338
1365 1360 1354 1349 1344 1339 1336 1332 1329 1324 1320 1318 1316 1315 1314 1312 1313 1314 1313 1312 1313 1315 1319 1322 1325 1326 1330 1333 1337 1339 1340 1341 1340 1340 1341 1340 1337 1335 1332 1329 1328 1327 1324
1356 1350 1345 1340 1335 1330 1327 1323 1320 1315 1311 1308 1306 1305 1305 1303 1303 1303 1303 1303 1303 1304 1308 1311 1314 1317 1321 1324 1327 1329 1330 1332 1331 1330 1331 1331 1328 1327 1319 1314 1314 1312 1309